Flag Weather past 2 weeks in Kathmandu, Nepal

Now
66 °F

Passing clouds.


Feels Like: 66 °F
Forecast: 39 / 67 °F
Wind: 3 mph from West

Location: Kathmandu Airport

Current Time: Nov 29, 2014 at 2:48:56 PM

Latest Report: Nov 29, 2014 at 1:35 PM


Visibility: 4 mi

Pressure: 29.98 "Hg

Humidity: 46%

Dew point: 45 °F

Location of KathmanduLocation

Historic Weather in Kathmandu — Graph

°F

Kathmandu temperature yesterday

Maximum temperature yesterday: 66 °F (at 1:35 PM)
Minimum temperature yesterday: 48 °F (at 2:35 AM)
Average temperature yesterday: 55 °F

Past Weeks' High & Low Weather Summary

 TemperatureHumidityPressure
High70 °F (Nov 15, 12:35 PM)100% (Nov 15, 3:35 AM)30.27 "Hg (Nov 15, 3:35 AM)
Low45 °F (Nov 26, 5:35 AM)43% (Nov 26, 1:35 PM)29.89 "Hg (Nov 26, 2:35 PM)
Average57 °F80%30.08 "Hg
* Reported Nov 14 1:35 PM — Nov 29 1:35 PM, Kathmandu, Weather by CustomWeather, © 2014

Note: Actual official high and low records may vary slightly from our data, if they occured in-between our weather recording intervals... More about our weather records

Advertising

Kathmandu weather history for previous 24 hours

 ConditionsComfort  
Time TempWeatherWind HumidityBarometerVisibility
1:35 PM
Nov 29
66 °FPassing clouds.3 mph46%29.98 "Hg4 mi
12:35 PM66 °FPassing clouds.No wind49%30.04 "Hg4 mi
5:35 AM45 °FFog.5 mph100%30.04 "Hg2 mi
4:35 AM46 °FFog.3 mph93%30.04 "Hg2 mi
3:35 AM46 °FPassing clouds.5 mph93%30.04 "Hg4 mi
2:35 AM48 °FPassing clouds.No wind94%30.04 "Hg4 mi
1:35 AM46 °FPassing clouds.No wind100%30.07 "Hg4 mi
12:35 AM48 °FPassing clouds.No wind94%30.07 "Hg4 mi
11:35 PM
Nov 28
50 °FPassing clouds.No wind88%30.07 "Hg4 mi
10:35 PM50 °FPassing clouds.No wind88%30.09 "Hg4 mi
9:35 PM52 °FPassing clouds.No wind82%30.07 "Hg4 mi
8:35 PM52 °FPassing clouds.No wind88%30.07 "Hg4 mi
7:35 PM55 °FPassing clouds.No wind82%30.04 "Hg4 mi
6:35 PM57 °FPassing clouds.3 mph72%30.01 "Hg4 mi
5:35 PM59 °FScattered clouds.No wind68%30.01 "Hg4 mi
4:35 PM61 °FPassing clouds.10 mph59%30.01 "Hg4 mi
3:35 PM63 °FPassing clouds.7 mph56%30.01 "Hg4 mi
2:35 PM64 °FPassing clouds.9 mph52%30.01 "Hg4 mi
Weather by CustomWeather, © 2014

See weather overviewHow to use our weather pages